Home > Time Zones > World Clock > Weather > India > Theni > Past weeks

Flag for India Weather past 2 weeks in Theni, Tamil Nadu, India

Now
86 °F

Passing clouds.


Feels Like: 87 °F
Forecast: 70 / 90 °F
Wind: 5 mph from North

Location: Coimbatore / Peelamedu

Current Time: Mar 5, 2015 at 9:09:34 PM

Latest Report: Mar 5, 2015 at 8:30 PM


Visibility: 4 mi

Pressure: 29.92 "Hg

Humidity: 49%

Dew point: 64 °F

Location of TheniLocation

Historic Weather in Theni — Graph

°F

Theni temperature yesterday

Maximum temperature yesterday: 93 °F (at 2:00 PM)
Minimum temperature yesterday: 75 °F (at 2:30 AM)
Average temperature yesterday: 84 °F

Past Weeks' High & Low Weather Summary

 TemperatureHumidityPressure
High93 °F (Feb 25, 3:00 PM)94% (Feb 27, 7:00 AM)30.09 "Hg (Feb 27, 7:00 AM)
Low66 °F (Feb 24, 6:30 AM)9% (Feb 23, 4:30 PM)29.80 "Hg (Feb 26, 3:30 PM)
Average82 °F53%29.93 "Hg
* Reported Feb 18 7:30 PM — Mar 5 8:00 PM, Theni, Weather by CustomWeather, © 2015

Note: Actual official high and low records may vary slightly from our data, if they occured in-between our weather recording intervals... More about our weather records

Advertising

Theni weather history for previous 24 hours

 ConditionsComfort  
Time TempWeatherWind HumidityBarometerVisibility
8:00 PM
Thu, Mar 5
86 °FPassing clouds.5 mph46%29.92 "Hg4 mi
7:30 PM88 °FPassing clouds.5 mph43%29.89 "Hg4 mi
7:00 PM88 °FPassing clouds.5 mph46%29.89 "Hg4 mi
6:30 PM88 °FPassing clouds.5 mph46%29.89 "Hg4 mi
6:00 PM90 °FPassing clouds.9 mph43%29.86 "Hg4 mi
5:30 PM90 °FPassing clouds.9 mph41%29.86 "Hg5 mi
5:00 PM91 °FPassing clouds.10 mph41%29.86 "Hg5 mi
4:30 PM91 °FScattered clouds.9 mph41%29.86 "Hg5 mi
4:00 PM93 °FScattered clouds.3 mph39%29.86 "Hg5 mi
3:30 PM93 °FScattered clouds.7 mph36%29.86 "Hg5 mi
2:30 PM91 °FPassing clouds.6 mph38%29.89 "Hg5 mi
2:00 PM91 °FPassing clouds.7 mph38%29.92 "Hg5 mi
1:30 PM91 °FPassing clouds.9 mph38%29.92 "Hg4 mi
1:00 PM91 °FPassing clouds.7 mph38%29.95 "Hg4 mi
12:30 PM90 °FPassing clouds.7 mph41%29.95 "Hg4 mi
12:00 PM88 °FPassing clouds.12 mph49%29.98 "Hg4 mi
11:30 AM88 °FPassing clouds.6 mph49%30.01 "Hg4 mi
11:00 AM86 °FPassing clouds.8 mph55%30.01 "Hg4 mi
10:30 AM86 °FHaze.6 mph55%30.01 "Hg3 mi
9:30 AM82 °FHaze.5 mph58%30.01 "Hg3 mi
9:00 AM81 °FHaze.7 mph66%30.01 "Hg2 mi
8:30 AM79 °FScattered clouds.2 mph70%29.98 "Hg2 mi
7:30 AM75 °FFog.No wind78%29.95 "Hg2 mi
7:00 AM73 °FFog.No wind89%29.95 "Hg2 mi
5:30 AM73 °FFog.3 mph89%29.92 "Hg2 mi
4:30 AM73 °FFog.5 mph83%29.92 "Hg2 mi
2:30 AM75 °FFog.3 mph78%29.92 "Hg2 mi
12:30 AM75 °FFog.7 mph78%29.95 "Hg2 mi
12:00 AM75 °FFog.10 mph78%29.98 "Hg2 mi
11:30 PM
Wed, Mar 4
75 °FFog.7 mph78%30.01 "Hg2 mi
11:00 PM75 °FFog.5 mph78%30.01 "Hg2 mi
10:30 PM75 °FFog.7 mph78%30.01 "Hg2 mi
10:00 PM75 °FFog.12 mph78%30.01 "Hg2 mi
9:30 PM77 °FPassing clouds.13 mph74%29.98 "Hg3 mi
Weather by CustomWeather, © 2015

See weather overviewHow to use our weather pages